Location: Cuzcurrita-R�o Tir�n
(42.5415°N, 2.9642°W)
Time: 14:08:49
(UTC+00:00)

STARLINK-80 - Pass Details

Date: 27 February 2020
Orbit: 488 x 494 km, 53.0° (Epoch: 07 April)

Event Time Altitude Azimuth Distance (km) Brightness Sun altitude
Rises 19:17:35 0° 309° (NW) 2,583 8.0 -15.4°
Reaches altitude 10° 19:19:55 10° 319° (NW) 1,698 6.7 -15.8°
Maximum altitude 19:23:25 33° 25° (NNE) 855 4.4 -16.4°
Enters shadow 19:24:19 29° 54° (NE) 933 4.4 -16.6°
